[[{"header":{"parameterUnit":"m.s-1","parameterCategory":2,"la1":30.2991,"la2":30.254,"lo1":-89.0895,"lo2":-89.0444,"dy":0.0017,"dx":0.0017,"nx":28,"ny":28,"refTime":"2025-04-17T21:00:00:Z","depth":"0","parameterNumber":2,"parameterNumberName":"U-component_of_CURRENTS"},"data":[0,0,0,0,0,0,0,0,0,0,0,0,0,0,0,0,0,0,0,0,0,0,0,0,0,0,0,0,0,0,0,0,0,0,0,0,0,0,0,0,0,0,0,0,0,0,0,0,0,0,0,0,0,0,0,0,0,0,0.2054,0.2054,0,0.2068,0.2068,0.2068,0.2057,0.2057,0.2056,0.2056,0.2063,0.2064,0.2064,0,0,0,0,0,0,0,0,0,0,0,0,0,0.2014,0.2015,0.2054,0.2054,0.2054,0.2068,0.2068,0.2068,0.2057,0.2057,0.2056,0.2056,0.2063,0.2064,0.2064,0,0,0,0,0,0,0,0,0,0,0,0,0,0.2029,0.2015,0.2054,0.2051,0.2051,0.2068,0.2068,0.2068,0.2057,0.2057,0.2056,0.2056,0.2063,0.2063,0.2064,0.208,0,0,0.2067,0.2067,0,0,0,0,0,0,0,0,0.2028,0.203,0.2051,0.2052,0.2052,0.2061,0.2057,0.2072,0.2057,0.2054,0.2056,0.2055,0.2063,0.2064,0.2066,0.208,0.208,0.2067,0.2067,0.2067,0.2068,0,0,0,0,0,0,0,0.2027,0.2029,0.2058,0.2052,0.2052,0.2049,0.205,0.206,0.206,0.2054,0.2053,0.2057,0.2063,0.2065,0.2066,0.208,0.2067,0.2067,0.2068,0.2068,0.2173,0.2175,0,0,0,0,0,0,0.2029,0.2029,0.2057,0.2058,0.204,0.205,0.2052,0.2058,0.206,0.206,0.2058,0.2057,0.2064,0.2065,0.2066,0.2132,0.2067,0.2068,0.2069,0.2171,0.2174,0.2176,0,0,0,0,0,0,0.2028,0.2031,0.2057,0.2045,0.2048,0.2052,0.2058,0.2058,0.2065,0.2063,0.2063,0.2065,0.2064,0.2065,0.2097,0.213,0.2069,0.2069,0.2168,0.2172,0.2175,0.2234,0,0,0,0,0,0,0.2027,0.2031,0.2035,0.2045,0.2049,0.2082,0.2059,0.2059,0.2069,0.2068,0.207,0.2069,0.2063,0.2096,0.2097,0.213,0.207,0.2165,0.217,0.2174,0.2229,0.2239,0.2247,0,0,0,0,0,0.2025,0.2033,0.2036,0.2039,0.2055,0.2083,0.2085,0.2084,0.207,0.2085,0.2091,0.2069,0.2125,0.2098,0.21,0.2133,0.2163,0.2168,0.2173,0.2225,0.2237,0.2247,0,0,0,0,0,0,0.2013,0.2033,0.2036,0.2048,0.2072,0.2082,0.209,0.209,0.2105,0.2101,0.2094,0.2096,0.2139,0.2133,0.2103,0.218,0.2143,0.2148,0.2181,0.2192,0.2202,0.2197,0.207,0,0,0,0,0,0.2015,0.2028,0.2051,0.2062,0.2074,0.2083,0.2092,0.2097,0.2111,0.2116,0.2122,0.2135,0.2162,0.2173,0.2192,0.2227,0.2253,0.2254,0.2264,0.2271,0.2272,0.2343,0.2359,0.2193,0.2193,0.2193,0,0,0.201,0.2026,0.203,0.2061,0.2073,0.2102,0.2087,0.2109,0.2136,0.2115,0.2151,0.2166,0.218,0.2227,0.2246,0.2224,0.2341,0.2278,0.2284,0.2281,0.235,0.2366,0.2381,0.2197,0.2196,0.2196,0,0,0.2015,0.2026,0.2043,0.207,0.21,0.2114,0.2124,0.2148,0.2163,0.2203,0.2203,0.2239,0.2269,0.2294,0.2308,0.238,0.2389,0.239,0.2429,0.2499,0.2513,0.2525,0.2611,0.263,0.2392,0.2393,0.2393,0,0.2008,0.2036,0.2053,0.2084,0.2106,0.2123,0.2152,0.2178,0.2211,0.2231,0.2223,0.2295,0.2303,0.2368,0.2396,0.24,0.2447,0.2381,0.251,0.2522,0.2534,0.2619,0.2639,0.2396,0.2396,0.2395,0.2395,0,0.2032,0.2059,0.2073,0.2119,0.2147,0.2177,0.2217,0.2249,0.2266,0.2289,0.2356,0.2382,0.242,0.2441,0.2437,0.2529,0.2541,0.2514,0.2477,0.2554,0.2639,0.266,0.2401,0.24,0.2399,0.2398,0,0,0.2002,0.2074,0.208,0.211,0.2168,0.2193,0.2249,0.2304,0.2345,0.2385,0.2448,0.2497,0.2505,0.2523,0.2537,0.2597,0.2728,0.2593,0.2595,0.267,0.291,0.2916,0.2939,0.2726,0.2729,0.2732,0.2948,0,0.2016,0.2073,0.2109,0.2167,0.2201,0.2244,0.2297,0.2349,0.2399,0.2469,0.2509,0.2576,0.254,0.2579,0.2629,0.2706,0.2779,0.2673,0.283,0.2835,0.2824,0.2961,0.2845,0.3026,0.2967,0.2971,0.2973,0,0.203,0.2068,0.2121,0.2199,0.2217,0.2254,0.2339,0.2394,0.2491,0.2533,0.2595,0.2638,0.2736,0.2698,0.2854,0.2791,0.2854,0.2908,0.2917,0.291,0.2878,0.2934,0.3065,0.2985,0.3004,0.3002,0.2999,0,0.2003,0.208,0.2119,0.2145,0.2232,0.2264,0.2314,0.2405,0.2459,0.2588,0.2653,0.2747,0.2826,0.2907,0.3005,0.2948,0.3194,0.3123,0.3193,0.3195,0.3119,0.3108,0.3176,0.3246,0.3245,0.3245,0.3244,0,0.2007,0.204,0.2108,0.2131,0.2179,0.2251,0.2319,0.2387,0.2499,0.258,0.268,0.2778,0.2885,0.3024,0.3077,0.3222,0.3253,0.324,0.3262,0.314,0.3129,0.307,0.3035,0.3253,0.3251,0.3249,0.3248,0,0.1974,0.2022,0.2064,0.2142,0.2167,0.22,0.2301,0.2351,0.248,0.2601,0.2654,0.2838,0.3028,0.3151,0.333,0.3333,0.3383,0.3498,0.3362,0.3363,0.33,0.3272,0.3262,0.3164,0.3604,0.3606,0.3607,0,0.1963,0.1982,0.2045,0.206,0.2091,0.2153,0.219,0.2313,0.238,0.2631,0.2689,0.2935,0.3082,0.337,0.3461,0.3612,0.3474,0.3569,0.3418,0.3324,0.331,0.3147,0.3051,0.3361,0.336,0.3359,0.3359,0,0.193,0.1945,0.1975,0.2007,0.2036,0.2084,0.2162,0.221,0.2381,0.2519,0.2735,0.2895,0.3191,0.3323,0.3534,0.3579,0.3395,0.356,0.3493,0.3169,0.2966,0.2871,0.3205,0.3353,0.3354,0.3354,0.3354,0.3355,0.1888,0.1893,0.1926,0.1956,0.1981,0.2022,0.2047,0.2154,0.228,0.2487,0.2684,0.2902,0.3145,0.3429,0.3464,0.3448,0.3395,0.3342,0.3339,0.3198,0.3023,0.3364,0.3503,0.3505,0.3506,0.3507,0.3508,0,0.1845,0.186,0.1878,0.1909,0.1913,0.1957,0.2027,0.206,0.218,0.2401,0.2599,0.288,0.3054,0.3207,0.3319,0.3239,0.3041,0.3157,0.288,0.281,0.3159,0.3064,0.3076,0.3076,0.3076,0.3076,0.3077,0.3077,0.1821,0.1828,0.1848,0.1845,0.1859,0.1859,0.1886,0.1953,0.2083,0.2283,0.2448,0.2636,0.2932,0.3185,0.316,0.3067,0.281,0.2724,0.2703,0.2938,0.2951,0.2964,0.2865,0.2835,0.2834,0.2189,0.2184,0.2181]},{"header":{"parameterUnit":"m.s-1","parameterCategory":2,"la1":30.2991,"la2":30.254,"lo1":-89.0895,"lo2":-89.0444,"dy":0.0017,"dx":0.0017,"nx":28,"ny":28,"refTime":"2025-04-17T21:00:00:Z","depth":"0","parameterNumber":3,"parameterNumberName":"V-component_of_CURRENTS"},"data":[0,0,0,0,0,0,0,0,0,0,0,0,0,0,0,0,0,0,0,0,0,0,0,0,0,0,0,0,0,0,0,0,0,0,0,0,0,0,0,0,0,0,0,0,0,0,0,0,0,0,0,0,0,0,0,0,0,0,0.0008,0.0007,0,-0.007,-0.0071,-0.0072,-0.0118,-0.0118,-0.0119,-0.0119,-0.0209,-0.0211,-0.0213,0,0,0,0,0,0,0,0,0,0,0,0,0,0.0078,0.0078,0.0008,0.0007,0.0006,-0.007,-0.0071,-0.0072,-0.0118,-0.0118,-0.0119,-0.0119,-0.0208,-0.021,-0.0213,0,0,0,0,0,0,0,0,0,0,0,0,0,0.0029,0.0077,0.0008,-0.0026,-0.003,-0.007,-0.0071,-0.0072,-0.0118,-0.0118,-0.0119,-0.0119,-0.0207,-0.021,-0.0213,-0.0227,0,0,-0.0224,-0.0225,0,0,0,0,0,0,0,0,0.0032,0.0027,-0.002,-0.0024,-0.0028,-0.0085,-0.0079,-0.0125,-0.0118,-0.0085,-0.0119,-0.0119,-0.0168,-0.0175,-0.0188,-0.0232,-0.0235,-0.0224,-0.0226,-0.0227,-0.0228,0,0,0,0,0,0,0,0.0036,0.0029,-0.0023,-0.0021,-0.0026,-0.0051,-0.0058,-0.0088,-0.0124,-0.0088,-0.0091,-0.01,-0.017,-0.0185,-0.0191,-0.0237,-0.0224,-0.0227,-0.0229,-0.023,-0.0293,-0.0292,0,0,0,0,0,0,0.0047,0.0033,-0.0021,-0.0025,0.0002,-0.0052,-0.006,-0.0066,-0.0123,-0.0132,-0.0099,-0.0102,-0.0179,-0.0187,-0.0194,-0.0203,-0.0227,-0.023,-0.0232,-0.0293,-0.0292,-0.0292,0,0,0,0,0,0,0.0049,0.0043,-0.0017,0.0002,-0.0008,-0.0052,-0.006,-0.0068,-0.0083,-0.0132,-0.0141,-0.0107,-0.018,-0.0189,-0.0215,-0.0207,-0.0232,-0.0235,-0.0293,-0.0293,-0.0292,-0.0228,0,0,0,0,0,0,0.0052,0.0045,0.0046,0.0003,-0.0008,-0.0032,-0.006,-0.0069,-0.0088,-0.0092,-0.0141,-0.015,-0.0181,-0.021,-0.0218,-0.0212,-0.0237,-0.0294,-0.0293,-0.0292,-0.0231,-0.0225,-0.0221,0,0,0,0,0,0.0054,0.006,0.0046,0.004,-0.0006,-0.0032,-0.0039,-0.0073,-0.0088,-0.0089,-0.0122,-0.0149,-0.0212,-0.0212,-0.0222,-0.0217,-0.0294,-0.0293,-0.0292,-0.0233,-0.0226,-0.0221,0,0,0,0,0,0,0.0091,0.0054,0.0039,0.0032,0.0006,-0.0039,-0.0044,-0.0069,-0.0097,-0.0099,-0.0146,-0.0157,-0.0176,-0.0205,-0.0204,-0.0233,-0.0257,-0.0258,-0.0208,-0.0203,-0.0198,-0.0181,-0.024,0,0,0,0,0,0.01,0.0095,0.0055,0.0051,0.0041,-0.0001,-0.0016,-0.0037,-0.0069,-0.0083,-0.0116,-0.0152,-0.0181,-0.0198,-0.0227,-0.0244,-0.0259,-0.0247,-0.0242,-0.0238,-0.0231,-0.0248,-0.0244,-0.029,-0.029,-0.029,0,0,0.0113,0.0093,0.0089,0.0059,0.0036,0.0029,-0.001,-0.0026,-0.0031,-0.0087,-0.01,-0.0136,-0.0182,-0.0199,-0.021,-0.0222,-0.023,-0.0237,-0.0233,-0.0228,-0.0247,-0.0242,-0.0238,-0.0289,-0.0289,-0.0289,0,0,0.0139,0.0119,0.0124,0.0107,0.0078,0.0054,0.0052,0.0013,-0.0004,-0.0023,-0.0063,-0.0094,-0.0136,-0.0168,-0.0191,-0.0179,-0.0204,-0.0187,-0.015,-0.0166,-0.0162,-0.0159,-0.0157,-0.0154,-0.0185,-0.0185,-0.0185,0,0.0156,0.0155,0.0122,0.0123,0.0115,0.007,0.0075,0.0054,0.0012,0.0006,-0.0015,-0.0077,-0.0122,-0.0145,-0.0145,-0.0168,-0.0171,-0.0167,-0.0159,-0.0156,-0.0154,-0.0152,-0.015,-0.0182,-0.0182,-0.0182,-0.0183,0,0.0184,0.0184,0.0187,0.0175,0.0163,0.0161,0.0128,0.0119,0.0093,0.007,0.0046,-0.0014,-0.0049,-0.0072,-0.0109,-0.0116,-0.012,-0.0149,-0.0169,-0.0145,-0.0145,-0.0144,-0.0177,-0.0178,-0.0179,-0.018,0,0,0.0218,0.0209,0.021,0.0216,0.019,0.0186,0.0184,0.0169,0.0182,0.0133,0.0147,0.0068,0.0039,0.0011,-0.004,-0.0063,-0.0059,-0.0094,-0.0097,-0.0084,-0.0072,-0.0054,-0.0051,-0.0081,-0.0081,-0.0081,-0.0072,0,0.0249,0.0269,0.0252,0.0273,0.0281,0.025,0.0258,0.0241,0.0224,0.0232,0.0165,0.016,0.007,0.0066,0.0021,-0.0028,-0.0055,-0.0057,-0.0105,-0.0106,-0.0087,-0.0049,-0.0075,-0.0068,-0.0071,-0.0071,-0.0071,0,0.0281,0.029,0.0318,0.0329,0.0331,0.0342,0.0354,0.0356,0.0349,0.0341,0.0312,0.0273,0.023,0.0159,0.0067,0.0075,0.0004,-0.0045,-0.0047,-0.0051,-0.0085,-0.0098,-0.0066,-0.0238,-0.0069,-0.007,-0.007,0,0.0323,0.0337,0.0363,0.0365,0.0372,0.0387,0.0396,0.0395,0.0431,0.0428,0.0475,0.0385,0.0393,0.0273,0.0158,0.0121,0.008,0.0013,-0.0042,-0.0041,-0.0084,-0.0087,-0.0219,-0.0053,-0.0053,-0.0053,-0.0053,0,0.0362,0.0383,0.0391,0.0408,0.0459,0.0443,0.0507,0.0503,0.0547,0.0637,0.0546,0.0613,0.0426,0.0379,0.0225,0.012,0.0127,-0.0018,-0.0034,-0.006,-0.0061,-0.023,-0.033,-0.0053,-0.0053,-0.0053,-0.0053,0,0.0404,0.0406,0.0442,0.0463,0.0482,0.0521,0.0601,0.0661,0.0688,0.0813,0.0835,0.0808,0.0754,0.0569,0.041,0.0248,0.0017,0.007,0.0065,0.0048,-0.0181,-0.0275,-0.0411,-0.0496,0.0005,0.0006,0.0006,0,0.0427,0.0451,0.0494,0.0536,0.0554,0.062,0.0688,0.0728,0.0824,0.0958,0.1049,0.1035,0.1065,0.0833,0.0533,0.0281,0.0074,0.0078,-0.002,-0.0179,-0.0297,-0.0377,-0.0445,-0.0051,-0.0051,-0.0051,-0.0051,0,0.0478,0.0492,0.0527,0.0621,0.0695,0.0796,0.0909,0.1012,0.1114,0.1237,0.1411,0.1448,0.1234,0.098,0.0617,0.0406,-0.0058,0.0072,-0.0108,-0.0354,-0.0437,-0.0529,-0.0059,-0.0051,-0.0051,-0.0051,-0.0051,-0.0051,0.0523,0.0566,0.063,0.0724,0.0823,0.0996,0.1117,0.1269,0.1466,0.1696,0.1691,0.1798,0.1358,0.0867,0.0564,-0.0027,-0.0027,-0.023,-0.0327,-0.0389,-0.0489,0.0004,0.0002,0.0002,0.0002,0.0003,0.0003,0,0.06,0.0657,0.0741,0.0882,0.103,0.1063,0.1289,0.1438,0.1706,0.1893,0.2038,0.1876,0.1362,0.0801,0.0004,-0.037,-0.0549,-0.0589,-0.0749,-0.0799,-0.0375,-0.0397,-0.0468,-0.0468,-0.0468,-0.0468,-0.0467,-0.0467,0.065,0.0753,0.0803,0.1056,0.1169,0.1397,0.1544,0.1755,0.1927,0.2158,0.222,0.2217,0.1749,0.0338,-0.0582,-0.0788,-0.1078,-0.1124,-0.1238,-0.0999,-0.0975,-0.0951,-0.0997,-0.1192,-0.1193,-0.1649,-0.1654,-0.1657]}],[{"header":{"parameterUnit":"m.s-1","parameterCategory":2,"la1":30.2991,"la2":30.254,"lo1":-89.0895,"lo2":-89.0444,"dy":0.0017,"dx":0.0017,"nx":28,"ny":28,"refTime":"2025-04-17T21:00:00:Z","depth":"2","parameterNumber":2,"parameterNumberName":"U-component_of_CURRENTS"},"data":[0,0,0,0,0,0,0,0,0,0,0,0,0,0,0,0,0,0,0,0,0,0,0,0,0,0,0,0,0,0,0,0,0,0,0,0,0,0,0,0,0,0,0,0,0,0,0,0,0,0,0,0,0,0,0,0,0,0,0.2007,0.2007,0,0.2023,0.2023,0.2024,0.2019,0.2019,0.2019,0.2018,0.2033,0.2034,0.2035,0,0,0,0,0,0,0,0,0,0,0,0,0,0.1974,0.1975,0.2007,0.2007,0.2008,0.2023,0.2023,0.2024,0.2019,0.2019,0.2019,0.2018,0.2033,0.2034,0.2035,0,0,0,0,0,0,0,0,0,0,0,0,0,0.1988,0.1975,0.2007,0.2008,0.2008,0.2023,0.2023,0.2024,0.2019,0.2019,0.2018,0.2018,0.2033,0.2034,0.2035,0.2048,0,0,0.2038,0.2038,0,0,0,0,0,0,0,0,0.1988,0.1989,0.2008,0.2008,0.2009,0.202,0.2017,0.2032,0.2019,0.2014,0.2018,0.2018,0.203,0.2031,0.2033,0.2048,0.2049,0.2038,0.2038,0.2039,0.2039,0,0,0,0,0,0,0,0.1987,0.1989,0.2013,0.2008,0.2009,0.2008,0.201,0.202,0.2023,0.2015,0.2014,0.2018,0.203,0.2032,0.2034,0.2049,0.2038,0.2038,0.2039,0.2039,0.2149,0.2151,0,0,0,0,0,0,0.1987,0.1988,0.2012,0.2013,0.1998,0.2009,0.2011,0.2016,0.2023,0.2024,0.2018,0.2018,0.2031,0.2032,0.2034,0.2105,0.2039,0.2039,0.204,0.2146,0.2149,0.2152,0,0,0,0,0,0,0.1986,0.1989,0.2011,0.2001,0.2004,0.201,0.2016,0.2016,0.2025,0.2026,0.2026,0.2027,0.2031,0.2033,0.2066,0.2103,0.204,0.2041,0.2143,0.2147,0.215,0.221,0,0,0,0,0,0,0.1985,0.1989,0.1994,0.2002,0.2005,0.2036,0.2016,0.2017,0.2028,0.2028,0.2034,0.2035,0.2031,0.2065,0.2067,0.2103,0.2041,0.214,0.2145,0.2149,0.2205,0.2215,0.2224,0,0,0,0,0,0.1984,0.1992,0.1994,0.1997,0.2012,0.2037,0.204,0.2041,0.2029,0.2045,0.2053,0.2035,0.2094,0.2067,0.2069,0.2106,0.2138,0.2144,0.2149,0.2201,0.2213,0.2224,0,0,0,0,0,0,0.1976,0.1992,0.1995,0.2006,0.2029,0.2037,0.2047,0.2048,0.2065,0.2063,0.2058,0.206,0.2107,0.2102,0.2072,0.2154,0.2116,0.2122,0.2155,0.2167,0.2176,0.2171,0.2042,0,0,0,0,0,0.1979,0.1991,0.201,0.2021,0.2032,0.2041,0.205,0.2056,0.207,0.2076,0.2085,0.2101,0.213,0.2142,0.2163,0.2201,0.222,0.2231,0.224,0.2248,0.2249,0.2313,0.2328,0.2169,0.2169,0.2169,0,0,0.1975,0.1989,0.1993,0.2022,0.2033,0.206,0.2046,0.2068,0.2095,0.2076,0.2116,0.2132,0.2148,0.2198,0.2218,0.2197,0.2311,0.2255,0.2261,0.2257,0.232,0.2335,0.2349,0.2172,0.2172,0.2171,0,0,0.1983,0.1992,0.2009,0.2034,0.2064,0.2076,0.2086,0.2109,0.2125,0.2167,0.2169,0.2206,0.224,0.2266,0.2281,0.2354,0.2359,0.2367,0.2408,0.2471,0.2484,0.2496,0.2565,0.2582,0.2371,0.2371,0.2371,0,0.1979,0.2005,0.202,0.205,0.207,0.2085,0.2114,0.214,0.2174,0.2196,0.219,0.2265,0.2274,0.2341,0.237,0.2374,0.2414,0.2359,0.2482,0.2494,0.2505,0.2573,0.2591,0.2374,0.2374,0.2374,0.2373,0,0.2003,0.2031,0.2045,0.2088,0.2115,0.2144,0.2182,0.2216,0.2234,0.2258,0.2327,0.2353,0.2394,0.2416,0.2413,0.2502,0.2509,0.2486,0.2448,0.2524,0.2592,0.261,0.2379,0.2378,0.2377,0.2376,0,0,0.1977,0.2047,0.2053,0.2083,0.2138,0.2162,0.2219,0.2273,0.2315,0.2358,0.2421,0.2473,0.2482,0.2501,0.2515,0.257,0.2687,0.2565,0.2566,0.2625,0.2847,0.2766,0.2778,0.269,0.2693,0.2695,0.2871,0,0.1992,0.205,0.2083,0.2142,0.2175,0.2217,0.2269,0.2323,0.2372,0.2442,0.2483,0.255,0.2518,0.2556,0.2603,0.2671,0.2734,0.2642,0.2771,0.2775,0.2687,0.2795,0.2572,0.2702,0.2889,0.2892,0.2894,0,0.2007,0.2045,0.2098,0.2177,0.2194,0.2232,0.2316,0.237,0.2466,0.2508,0.2572,0.2614,0.2707,0.2671,0.2808,0.2756,0.2805,0.2849,0.2857,0.2767,0.2727,0.2653,0.2727,0.2924,0.2921,0.2919,0.2917,0,0.1982,0.206,0.21,0.2126,0.2211,0.2245,0.2294,0.2383,0.2439,0.2564,0.2627,0.2718,0.2792,0.2862,0.294,0.2894,0.3099,0.3043,0.3019,0.3015,0.284,0.2814,0.3146,0.3146,0.3145,0.3145,0.3144,0,0.1989,0.2024,0.2091,0.2115,0.2164,0.2234,0.2303,0.237,0.248,0.2561,0.2655,0.2744,0.2846,0.2963,0.3004,0.3078,0.3151,0.3052,0.3061,0.2857,0.2832,0.3018,0.3,0.3152,0.315,0.3149,0.3148,0,0.1958,0.2006,0.2051,0.2129,0.2154,0.2187,0.2289,0.234,0.2463,0.2583,0.2636,0.28,0.2947,0.3048,0.3197,0.3161,0.3244,0.325,0.3008,0.2982,0.3102,0.3086,0.3238,0.3237,0.3236,0.3235,0.3235,0,0.1949,0.1969,0.2034,0.205,0.2082,0.2144,0.2182,0.2305,0.2372,0.2608,0.2664,0.2865,0.2969,0.3158,0.3158,0.3233,0.3281,0.3055,0.29,0.3122,0.3116,0.3101,0.3087,0.2717,0.2712,0.2708,0.2705,0,0.1919,0.1936,0.1966,0.2,0.2032,0.208,0.216,0.2209,0.2378,0.2498,0.2675,0.2794,0.2959,0.2931,0.3024,0.3021,0.3015,0.2971,0.3309,0.2706,0.2638,0.2628,0.2631,0.2669,0.2673,0.2675,0.2677,0.2679,0.188,0.1886,0.1921,0.1954,0.1982,0.2024,0.2056,0.2147,0.2257,0.2409,0.2566,0.2649,0.2725,0.2718,0.2692,0.266,0.2835,0.272,0.273,0.2745,0.263,0.2561,0.2559,0.2562,0.2564,0.2567,0.2568,0,0.1835,0.1856,0.1878,0.1914,0.1926,0.1968,0.2044,0.2056,0.2145,0.2251,0.236,0.223,0.2258,0.2333,0.2226,0.2245,0.2191,0.2169,0.2083,0.2123,0.2157,0.2008,0.1775,0.1772,0.1769,0.1766,0,0,0.1813,0.182,0.1844,0.186,0.1882,0.1893,0.1926,0.1933,0.1981,0.195,0.1949,0.2116,0.2248,0.1953,0.1958,0.1848,0.1954,0.1779,0.2426,0.2364,0.2393,0.25,0.2319,0,0,0,0,0]},{"header":{"parameterUnit":"m.s-1","parameterCategory":2,"la1":30.2991,"la2":30.254,"lo1":-89.0895,"lo2":-89.0444,"dy":0.0017,"dx":0.0017,"nx":28,"ny":28,"refTime":"2025-04-17T21:00:00:Z","depth":"2","parameterNumber":3,"parameterNumberName":"V-component_of_CURRENTS"},"data":[0,0,0,0,0,0,0,0,0,0,0,0,0,0,0,0,0,0,0,0,0,0,0,0,0,0,0,0,0,0,0,0,0,0,0,0,0,0,0,0,0,0,0,0,0,0,0,0,0,0,0,0,0,0,0,0,0,0,-0.0099,-0.01,0,-0.0172,-0.0173,-0.0174,-0.0214,-0.0214,-0.0215,-0.0215,-0.0298,-0.03,-0.0302,0,0,0,0,0,0,0,0,0,0,0,0,0,-0.0029,-0.003,-0.0099,-0.01,-0.0101,-0.0172,-0.0173,-0.0174,-0.0214,-0.0215,-0.0215,-0.0215,-0.0297,-0.03,-0.0302,0,0,0,0,0,0,0,0,0,0,0,0,0,-0.0076,-0.003,-0.0099,-0.013,-0.0133,-0.0172,-0.0173,-0.0174,-0.0214,-0.0215,-0.0215,-0.0215,-0.0296,-0.03,-0.0303,-0.0318,0,0,-0.0312,-0.0314,0,0,0,0,0,0,0,0,-0.0074,-0.0079,-0.0124,-0.0128,-0.0131,-0.0184,-0.0179,-0.0223,-0.0214,-0.0183,-0.0215,-0.0215,-0.0261,-0.0267,-0.028,-0.0322,-0.0326,-0.0313,-0.0314,-0.0316,-0.0317,0,0,0,0,0,0,0,-0.007,-0.0076,-0.0128,-0.0125,-0.013,-0.0152,-0.0158,-0.0187,-0.022,-0.0186,-0.0189,-0.0197,-0.0263,-0.0277,-0.0282,-0.0327,-0.0312,-0.0315,-0.0317,-0.0318,-0.0379,-0.0379,0,0,0,0,0,0,-0.0059,-0.0073,-0.0125,-0.013,-0.0102,-0.0153,-0.016,-0.0167,-0.022,-0.0228,-0.0197,-0.0199,-0.0271,-0.0279,-0.0285,-0.0292,-0.0316,-0.0319,-0.032,-0.038,-0.0379,-0.0379,0,0,0,0,0,0,-0.0058,-0.0063,-0.0123,-0.0103,-0.0112,-0.0153,-0.0161,-0.0168,-0.0182,-0.0228,-0.0237,-0.0203,-0.0272,-0.0281,-0.0305,-0.0296,-0.032,-0.0323,-0.038,-0.038,-0.0379,-0.0314,0,0,0,0,0,0,-0.0055,-0.0062,-0.0061,-0.0102,-0.0113,-0.0136,-0.0161,-0.017,-0.0187,-0.019,-0.0236,-0.0244,-0.0273,-0.03,-0.0308,-0.03,-0.0325,-0.038,-0.038,-0.0379,-0.0316,-0.0311,-0.0307,0,0,0,0,0,-0.0052,-0.0048,-0.006,-0.0066,-0.011,-0.0136,-0.0143,-0.0173,-0.0186,-0.0187,-0.0218,-0.0242,-0.0303,-0.0302,-0.0312,-0.0305,-0.0381,-0.038,-0.0379,-0.0318,-0.0312,-0.0307,0,0,0,0,0,0,-0.0015,-0.0053,-0.0067,-0.0074,-0.0099,-0.0143,-0.0146,-0.0169,-0.0195,-0.0196,-0.0241,-0.0251,-0.0268,-0.0296,-0.0295,-0.0321,-0.0345,-0.0346,-0.0296,-0.029,-0.0286,-0.0266,-0.0328,0,0,0,0,0,-0.0006,-0.0013,-0.0052,-0.0055,-0.0065,-0.0105,-0.0119,-0.0139,-0.0169,-0.0181,-0.0212,-0.0245,-0.0274,-0.0289,-0.0317,-0.0333,-0.0352,-0.0334,-0.033,-0.0325,-0.0317,-0.0339,-0.0335,-0.0377,-0.0377,-0.0377,0,0,0.0007,-0.0014,-0.0018,-0.0048,-0.0069,-0.0075,-0.0113,-0.0127,-0.0131,-0.0186,-0.0195,-0.023,-0.0275,-0.029,-0.03,-0.0312,-0.0323,-0.0325,-0.0321,-0.0314,-0.0338,-0.0334,-0.033,-0.0377,-0.0377,-0.0377,0,0,0.0034,0.0013,0.0018,0.0002,-0.0026,-0.0049,-0.005,-0.0088,-0.0103,-0.012,-0.0159,-0.0187,-0.0228,-0.0258,-0.0279,-0.0267,-0.0297,-0.0276,-0.0237,-0.0258,-0.0255,-0.0252,-0.0264,-0.0263,-0.0273,-0.0273,-0.0273,0,0.0052,0.0051,0.0017,0.0019,0.0012,-0.0033,-0.0025,-0.0046,-0.0085,-0.009,-0.0111,-0.017,-0.0213,-0.0234,-0.0232,-0.0256,-0.0268,-0.0253,-0.0251,-0.0249,-0.0247,-0.026,-0.026,-0.027,-0.027,-0.027,-0.0271,0,0.0081,0.0082,0.0085,0.0074,0.0063,0.0062,0.003,0.0023,-0.0001,-0.0023,-0.0047,-0.0105,-0.0138,-0.016,-0.0195,-0.0203,-0.0215,-0.0241,-0.0261,-0.0238,-0.0254,-0.0255,-0.0265,-0.0266,-0.0267,-0.0268,0,0,0.0115,0.0107,0.0109,0.0118,0.0093,0.0089,0.009,0.0077,0.0089,0.0043,0.0055,-0.0017,-0.0047,-0.0074,-0.0124,-0.0151,-0.0156,-0.0184,-0.0187,-0.0188,-0.0191,-0.025,-0.0256,-0.0178,-0.0178,-0.0178,-0.0204,0,0.0148,0.0172,0.0155,0.018,0.019,0.016,0.0168,0.0153,0.0135,0.0139,0.0075,0.0067,-0.0015,-0.002,-0.0065,-0.0125,-0.0156,-0.0146,-0.0221,-0.0222,-0.0271,-0.0259,-0.0228,-0.0254,-0.0205,-0.0205,-0.0206,0,0.0182,0.0193,0.0226,0.024,0.0243,0.0255,0.0267,0.027,0.0259,0.0249,0.0219,0.0177,0.0131,0.0065,-0.0039,-0.0025,-0.0103,-0.016,-0.0163,-0.024,-0.0282,-0.0272,-0.0257,-0.0207,-0.0207,-0.0207,-0.0207,0,0.0226,0.0244,0.0275,0.0278,0.0287,0.0304,0.0313,0.0309,0.034,0.0332,0.0368,0.028,0.0276,0.0157,0.0025,0.0002,-0.0079,-0.0127,-0.0256,-0.026,-0.0262,-0.0268,-0.0201,-0.0201,-0.0201,-0.0201,-0.0201,0,0.0268,0.0293,0.0304,0.0323,0.0375,0.036,0.0422,0.0418,0.0451,0.0523,0.0437,0.0473,0.0302,0.0232,0.0078,-0.0084,-0.0043,-0.0244,-0.0273,-0.024,-0.0242,-0.0228,-0.023,-0.0202,-0.0202,-0.0201,-0.0201,0,0.0313,0.0317,0.0357,0.0381,0.04,0.0439,0.0512,0.0563,0.0582,0.068,0.0696,0.064,0.0534,0.0351,0.0174,0.0008,-0.0155,-0.0225,-0.0173,-0.0198,-0.0335,-0.0334,-0.0374,-0.0376,-0.0378,-0.038,-0.0381,0,0.0337,0.0364,0.0409,0.0451,0.0469,0.0534,0.0594,0.0628,0.0706,0.0789,0.0856,0.0786,0.0734,0.0436,0.0137,-0.0143,-0.0166,-0.0294,-0.0358,-0.033,-0.0353,-0.0349,-0.0346,-0.0323,-0.0324,-0.0324,-0.0325,0,0.0389,0.0404,0.044,0.0531,0.0599,0.0687,0.0784,0.086,0.0936,0.1001,0.1061,0.1021,0.0747,0.0455,0.0081,-0.0111,-0.0257,-0.032,-0.0279,-0.0299,-0.0288,-0.031,-0.0306,-0.0331,-0.033,-0.033,-0.0329,-0.0329,0.0431,0.0473,0.0535,0.0624,0.0715,0.0845,0.0926,0.1024,0.1138,0.1222,0.1183,0.1106,0.0814,0.0288,0.0,-0.0312,-0.033,-0.0436,-0.043,-0.0425,-0.043,-0.0425,-0.0492,-0.0492,-0.0493,-0.0493,-0.0493,0,0.049,0.0551,0.0632,0.0748,0.0866,0.0913,0.1064,0.111,0.1229,0.1272,0.1261,0.0951,0.0659,0.0343,-0.0129,-0.0422,-0.0426,-0.0495,-0.0419,-0.0413,-0.0408,-0.0409,-0.0467,-0.0467,-0.0468,-0.0468,0,0,0.0529,0.0617,0.0665,0.0868,0.0971,0.1138,0.1229,0.1242,0.127,0.1237,0.1189,0.1074,0.0726,0.0394,0.003,-0.0206,-0.0247,-0.0262,-0.026,-0.0122,-0.0112,-0.0358,-0.0352,0,0,0,0,0]}],[{"header":{"parameterUnit":"m.s-1","parameterCategory":2,"la1":30.2991,"la2":30.254,"lo1":-89.0895,"lo2":-89.0444,"dy":0.0017,"dx":0.0017,"nx":28,"ny":28,"refTime":"2025-04-17T21:00:00:Z","depth":"4","parameterNumber":2,"parameterNumberName":"U-component_of_CURRENTS"},"data":[0,0,0,0,0,0,0,0,0,0,0,0,0,0,0,0,0,0,0,0,0,0,0,0,0,0,0,0,0,0,0,0,0,0,0,0,0,0,0,0,0,0,0,0,0,0,0,0,0,0,0,0,0,0,0,0,0,0,0.1235,0.1236,0,0.1308,0.1308,0.1309,0.1362,0.1363,0.1364,0.1365,0.1411,0.1412,0.1413,0,0,0,0,0,0,0,0,0,0,0,0,0,0.113,0.1131,0.1235,0.1236,0.1238,0.1308,0.1308,0.1309,0.1362,0.1363,0.1364,0.1365,0.1411,0.1412,0.1413,0,0,0,0,0,0,0,0,0,0,0,0,0,0.1184,0.1132,0.1235,0.1275,0.1279,0.1308,0.1308,0.1309,0.1362,0.1363,0.1364,0.1365,0.1411,0.1412,0.1413,0.1396,0,0,0.1415,0.1416,0,0,0,0,0,0,0,0,0.118,0.1187,0.1268,0.1272,0.1277,0.133,0.1289,0.1338,0.1362,0.1328,0.1365,0.1366,0.1383,0.1386,0.1394,0.1398,0.14,0.1415,0.1416,0.1416,0.1417,0,0,0,0,0,0,0,0.1177,0.1184,0.1261,0.1269,0.1275,0.1285,0.1293,0.1298,0.1345,0.1331,0.1335,0.1348,0.1385,0.1393,0.1395,0.1401,0.1415,0.1416,0.1417,0.1417,0.1489,0.149,0,0,0,0,0,0,0.1173,0.1181,0.1259,0.1264,0.1234,0.1286,0.1295,0.1309,0.1346,0.1354,0.1347,0.135,0.1391,0.1394,0.1397,0.1466,0.1416,0.1417,0.1418,0.1487,0.1489,0.1491,0,0,0,0,0,0,0.1171,0.1179,0.1256,0.1226,0.1237,0.1287,0.1302,0.131,0.1348,0.1359,0.1366,0.1379,0.1392,0.1396,0.1431,0.1465,0.1417,0.1418,0.1486,0.1488,0.149,0.1549,0,0,0,0,0,0,0.1167,0.1178,0.1198,0.1226,0.1238,0.1291,0.1301,0.1311,0.1353,0.1359,0.1389,0.1393,0.1393,0.143,0.1432,0.1465,0.1419,0.1484,0.1487,0.1489,0.1545,0.1553,0.1559,0,0,0,0,0,0.1163,0.1183,0.1198,0.1208,0.126,0.1292,0.13,0.1336,0.1354,0.1373,0.1398,0.1393,0.1448,0.1431,0.1433,0.1468,0.1483,0.1486,0.1489,0.1542,0.1551,0.1559,0,0,0,0,0,0,0.1152,0.1192,0.1208,0.1242,0.1273,0.1303,0.133,0.135,0.1385,0.1399,0.1406,0.1412,0.1452,0.1452,0.1433,0.1497,0.1466,0.147,0.1506,0.1514,0.1521,0.1527,0.142,0,0,0,0,0,0.1156,0.1182,0.1218,0.1247,0.1267,0.1302,0.1325,0.1349,0.1379,0.1397,0.142,0.1444,0.1461,0.1482,0.1491,0.1527,0.1536,0.1552,0.1559,0.1565,0.1572,0.162,0.1633,0.1501,0.1501,0.1501,0,0,0.1158,0.1186,0.1201,0.1247,0.1276,0.1303,0.1319,0.1362,0.139,0.1394,0.1447,0.1463,0.1473,0.1512,0.1532,0.1523,0.1608,0.1569,0.1574,0.1577,0.1625,0.1638,0.1649,0.1503,0.1503,0.1502,0,0,0.1164,0.1203,0.1224,0.1253,0.1305,0.1324,0.1342,0.1389,0.1421,0.1463,0.1476,0.152,0.1546,0.1571,0.158,0.1632,0.1635,0.1638,0.1691,0.1738,0.175,0.176,0.1791,0.1804,0.1653,0.1653,0.1653,0,0.1167,0.1199,0.1235,0.1264,0.1295,0.1335,0.1364,0.1395,0.1449,0.1485,0.1489,0.1563,0.1573,0.1628,0.1652,0.1649,0.1672,0.1657,0.1748,0.1758,0.1768,0.1797,0.181,0.1656,0.1656,0.1656,0.1655,0,0.1182,0.1218,0.1237,0.1284,0.1319,0.1354,0.14,0.1443,0.1486,0.1525,0.16,0.1624,0.1678,0.1688,0.1686,0.1764,0.1757,0.1743,0.1727,0.1785,0.1812,0.1825,0.1661,0.166,0.1659,0.1658,0,0,0.1155,0.1231,0.1239,0.127,0.1338,0.1365,0.1419,0.1484,0.1541,0.1596,0.1673,0.1715,0.1758,0.1772,0.1789,0.1834,0.192,0.1828,0.1829,0.1859,0.2026,0.1882,0.1881,0.1929,0.1931,0.1933,0.202,0,0.1157,0.1205,0.1249,0.1302,0.1332,0.1395,0.1449,0.1518,0.1581,0.1665,0.1719,0.1793,0.1781,0.1829,0.1873,0.1913,0.1955,0.1897,0.1965,0.1967,0.1832,0.1891,0.1941,0.2029,0.2031,0.2033,0.2035,0,0.1147,0.1187,0.1239,0.1326,0.135,0.1396,0.1501,0.1559,0.1677,0.1736,0.1823,0.1868,0.1961,0.1934,0.2036,0.2006,0.2024,0.2039,0.2042,0.1894,0.1845,0.1959,0.2057,0.2055,0.2054,0.2052,0.2051,0,0.1095,0.1175,0.122,0.1249,0.1353,0.1407,0.1476,0.1592,0.1661,0.1801,0.1866,0.197,0.2044,0.2087,0.2121,0.21,0.2212,0.2184,0.2065,0.2055,0.2133,0.2121,0.2244,0.2244,0.2243,0.2243,0.2243,0,0.1065,0.11,0.1209,0.1234,0.1318,0.1404,0.1509,0.1595,0.1725,0.181,0.1915,0.1979,0.2089,0.2154,0.2164,0.2153,0.2252,0.2082,0.2071,0.2155,0.2145,0.2142,0.2129,0.2246,0.2246,0.2245,0.2244,0,0.0992,0.106,0.112,0.1244,0.1296,0.1362,0.1521,0.1588,0.1726,0.1836,0.1887,0.2029,0.2113,0.2179,0.2264,0.2199,0.2206,0.2169,0.2264,0.2255,0.2007,0.1996,0.2054,0.205,0.2046,0.2043,0.2041,0,0.0956,0.0981,0.1117,0.117,0.1236,0.135,0.1429,0.1581,0.1643,0.1834,0.1866,0.2007,0.2077,0.2089,0.2166,0.2184,0.2146,0.2139,0.2057,0.2006,0.199,0.1985,0.198,0.2035,0.2034,0.2033,0.2032,0,0.0893,0.0951,0.1006,0.1118,0.121,0.1295,0.1412,0.1447,0.1612,0.1736,0.1808,0.1858,0.1948,0.2005,0.2038,0.2037,0.2141,0.21,0.2107,0.203,0.1983,0.197,0.1969,0.2019,0.2021,0.2022,0.2023,0,0.0856,0.0881,0.0971,0.1056,0.1166,0.1225,0.1291,0.1367,0.1452,0.1639,0.1657,0.1798,0.1928,0.1929,0.1953,0.1952,0.1914,0.1842,0.1861,0.1876,0.1774,0.1685,0.1631,0,0,0,0,0,0.0816,0.0843,0.091,0.1005,0.1098,0.1159,0.1277,0.1336,0.1475,0.148,0.1566,0.1631,0.1691,0.1765,0.1726,0.187,0.192,0.1816,0.1846,0.1949,0.1964,0.1858,0,0,0,0,0,0,0.0792,0.0859,0.0879,0.0937,0.0983,0.1079,0.1142,0.1228,0.1235,0.1378,0.1419,0.1524,0.1606,0.1694,0.1693,0.1713,0.1696,0.19,0.1895,0.1941,0.1954,0.1966,0.1862,0,0,0,0,0]},{"header":{"parameterUnit":"m.s-1","parameterCategory":2,"la1":30.2991,"la2":30.254,"lo1":-89.0895,"lo2":-89.0444,"dy":0.0017,"dx":0.0017,"nx":28,"ny":28,"refTime":"2025-04-17T21:00:00:Z","depth":"4","parameterNumber":3,"parameterNumberName":"V-component_of_CURRENTS"},"data":[0,0,0,0,0,0,0,0,0,0,0,0,0,0,0,0,0,0,0,0,0,0,0,0,0,0,0,0,0,0,0,0,0,0,0,0,0,0,0,0,0,0,0,0,0,0,0,0,0,0,0,0,0,0,0,0,0,0,-0.0157,-0.0157,0,-0.0202,-0.0202,-0.0203,-0.0235,-0.0235,-0.0235,-0.0236,-0.0294,-0.0295,-0.0296,0,0,0,0,0,0,0,0,0,0,0,0,0,-0.0117,-0.0117,-0.0157,-0.0157,-0.0158,-0.0202,-0.0202,-0.0203,-0.0235,-0.0235,-0.0235,-0.0236,-0.0293,-0.0295,-0.0296,0,0,0,0,0,0,0,0,0,0,0,0,0,-0.0145,-0.0117,-0.0157,-0.0179,-0.0182,-0.0201,-0.0202,-0.0203,-0.0235,-0.0235,-0.0235,-0.0236,-0.0293,-0.0295,-0.0297,-0.0301,0,0,-0.0303,-0.0304,0,0,0,0,0,0,0,0,-0.0143,-0.0146,-0.0175,-0.0178,-0.018,-0.0213,-0.0209,-0.0236,-0.0235,-0.0215,-0.0236,-0.0236,-0.0268,-0.0272,-0.0279,-0.0304,-0.0306,-0.0303,-0.0304,-0.0305,-0.0305,0,0,0,0,0,0,0,-0.0141,-0.0145,-0.0175,-0.0176,-0.0179,-0.0193,-0.0197,-0.0215,-0.0239,-0.0216,-0.0219,-0.0224,-0.0269,-0.0277,-0.0281,-0.0307,-0.0303,-0.0305,-0.0306,-0.0307,-0.035,-0.0349,0,0,0,0,0,0,-0.0134,-0.0143,-0.0173,-0.0176,-0.0162,-0.0193,-0.0198,-0.0202,-0.0238,-0.0244,-0.0223,-0.0225,-0.0274,-0.0278,-0.0283,-0.0287,-0.0305,-0.0307,-0.0308,-0.035,-0.035,-0.0349,0,0,0,0,0,0,-0.0133,-0.0137,-0.0171,-0.016,-0.0166,-0.0193,-0.0198,-0.0203,-0.0215,-0.0243,-0.0249,-0.0231,-0.0274,-0.028,-0.0299,-0.029,-0.0308,-0.0309,-0.035,-0.035,-0.0349,-0.0297,0,0,0,0,0,0,-0.0132,-0.0136,-0.0137,-0.016,-0.0166,-0.018,-0.0198,-0.0203,-0.0217,-0.022,-0.0252,-0.0258,-0.0275,-0.0296,-0.0301,-0.0293,-0.0311,-0.035,-0.035,-0.035,-0.0299,-0.0295,-0.0292,0,0,0,0,0,-0.013,-0.0128,-0.0137,-0.0141,-0.0167,-0.018,-0.0184,-0.0205,-0.0217,-0.0219,-0.0241,-0.0257,-0.0299,-0.0297,-0.0303,-0.0295,-0.035,-0.035,-0.035,-0.03,-0.0296,-0.0292,0,0,0,0,0,0,-0.0112,-0.0132,-0.0142,-0.0146,-0.0161,-0.0185,-0.0189,-0.0205,-0.0224,-0.0228,-0.0256,-0.0263,-0.0276,-0.0296,-0.0293,-0.0309,-0.0327,-0.0328,-0.0287,-0.0283,-0.028,-0.0259,-0.0313,0,0,0,0,0,-0.0108,-0.0111,-0.0132,-0.0136,-0.0141,-0.0166,-0.0175,-0.0188,-0.0208,-0.0217,-0.0239,-0.0263,-0.028,-0.0289,-0.0309,-0.0317,-0.0343,-0.0317,-0.0313,-0.031,-0.0298,-0.0335,-0.0333,-0.0349,-0.0349,-0.0349,0,0,-0.0103,-0.0113,-0.0116,-0.0132,-0.0145,-0.0142,-0.0172,-0.0181,-0.0177,-0.022,-0.0223,-0.0253,-0.028,-0.0288,-0.0296,-0.0303,-0.0322,-0.031,-0.0307,-0.0297,-0.0334,-0.0333,-0.0331,-0.0349,-0.0349,-0.0349,0,0,-0.0085,-0.0101,-0.0094,-0.0101,-0.0117,-0.0128,-0.013,-0.0153,-0.0162,-0.0174,-0.02,-0.0222,-0.0252,-0.0264,-0.0276,-0.0266,-0.0304,-0.0278,-0.0241,-0.0276,-0.0275,-0.0274,-0.0313,-0.0316,-0.0274,-0.0274,-0.0274,0,-0.0077,-0.0069,-0.0094,-0.0086,-0.0083,-0.0118,-0.0102,-0.0116,-0.0142,-0.0144,-0.0168,-0.0211,-0.0236,-0.024,-0.0237,-0.0256,-0.0288,-0.0252,-0.0271,-0.0271,-0.0271,-0.031,-0.0314,-0.0272,-0.0272,-0.0272,-0.0273,0,-0.005,-0.0043,-0.0039,-0.0035,-0.0037,-0.0031,-0.0047,-0.0052,-0.0073,-0.0091,-0.0109,-0.0151,-0.0174,-0.019,-0.0209,-0.0218,-0.0244,-0.0263,-0.0277,-0.0266,-0.0309,-0.0314,-0.0268,-0.0269,-0.027,-0.027,0,0,-0.0035,-0.002,-0.0019,-0.0,-0.0007,-0.0002,0.0008,0.0008,0.0013,-0.0025,-0.0024,-0.0061,-0.0095,-0.011,-0.0145,-0.0175,-0.0207,-0.0214,-0.0218,-0.0245,-0.0293,-0.0288,-0.0294,-0.0234,-0.0234,-0.0235,-0.0325,0,-0.0004,0.0033,0.0029,0.0068,0.0089,0.0073,0.0086,0.0079,0.0057,0.0045,-0.0002,-0.0021,-0.0061,-0.0079,-0.0112,-0.0184,-0.0217,-0.0181,-0.0306,-0.0309,-0.0301,-0.0298,-0.0236,-0.0329,-0.033,-0.0331,-0.0332,0,0.0024,0.0049,0.0095,0.0131,0.0138,0.0154,0.0171,0.0178,0.0152,0.0132,0.01,0.0052,0.0011,-0.0034,-0.014,-0.0119,-0.0194,-0.0255,-0.026,-0.0274,-0.0314,-0.0344,-0.0341,-0.0341,-0.034,-0.0339,-0.0339,0,0.0055,0.0096,0.014,0.0151,0.018,0.02,0.0213,0.0203,0.021,0.0183,0.0169,0.0109,0.0069,-0.0024,-0.0146,-0.0148,-0.0277,-0.0297,-0.0364,-0.0366,-0.0366,-0.0366,-0.037,-0.037,-0.037,-0.037,-0.037,0,0.0091,0.0124,0.0159,0.0183,0.0235,0.0239,0.0275,0.0277,0.0267,0.0264,0.0214,0.0187,0.0067,-0.0024,-0.0132,-0.0262,-0.0268,-0.0353,-0.0384,-0.0344,-0.034,-0.0371,-0.0369,-0.0373,-0.0372,-0.0372,-0.0371,0,0.0111,0.0134,0.0185,0.0231,0.0251,0.0284,0.032,0.0332,0.0324,0.0317,0.0308,0.0239,0.0124,-0.0003,-0.0163,-0.0242,-0.0367,-0.0413,-0.0359,-0.0388,-0.0438,-0.0433,-0.0491,-0.0491,-0.0492,-0.0492,-0.0492,0,0.0125,0.0154,0.0219,0.0246,0.0268,0.0316,0.034,0.0358,0.0362,0.0338,0.0327,0.0238,0.017,-0.0032,-0.0172,-0.0366,-0.0394,-0.0456,-0.044,-0.0423,-0.0449,-0.0443,-0.0438,-0.0493,-0.0493,-0.0493,-0.0493,0,0.0145,0.0162,0.0198,0.0254,0.0293,0.0341,0.0375,0.039,0.039,0.039,0.0348,0.025,0.0124,-0.0026,-0.0173,-0.0317,-0.041,-0.0461,-0.0461,-0.0447,-0.0427,-0.045,-0.0445,-0.0495,-0.0495,-0.0495,-0.0494,0,0.0142,0.0164,0.0198,0.0242,0.0293,0.0328,0.0367,0.0377,0.0393,0.0376,0.0359,0.024,0.0178,-0.0004,-0.0147,-0.0275,-0.031,-0.0347,-0.0354,-0.0354,-0.0284,-0.0236,-0.0268,0,0,0,0,0,0.0128,0.0135,0.0179,0.0219,0.0269,0.0295,0.0359,0.0388,0.0403,0.0383,0.0377,0.0265,0.0081,0.0008,-0.0119,-0.0182,-0.0354,-0.0337,-0.0406,-0.0503,-0.0501,-0.0442,0,0,0,0,0,0,0.011,0.014,0.0157,0.0176,0.0199,0.0249,0.0292,0.0318,0.0321,0.0333,0.025,0.022,0.0048,0.0141,-0.0132,-0.0171,-0.0232,-0.0418,-0.042,-0.0504,-0.0502,-0.0501,-0.0439,0,0,0,0,0]}]]